Flag for Burundi Weather past 2 weeks in Gitega, Burundi

Now
70 °F

Partly sunny.


Feels Like: 70 °F
Forecast: 56 / 74 °F
Wind: 5 mph from Northeast

Location: Kigoma Airport


UV Index: 3 (Moderate)

Visibility: N/A


Pressure: 30.07 "Hg

Humidity: 88%

Dew point: 66 °F

Location of GitegaLocation

Historic Weather in Gitega

°F

Gitega temperature yesterday

Maximum temperature yesterday: 81 °F (at 12:00 PM)
Minimum temperature yesterday: 70 °F (at 4:00 AM)
Average temperature yesterday: 76 °F

Past Weeks' High & Low Weather Summary

 TemperatureHumidityPressure
High86 °F (Apr 10, 1:00 PM)100% (Apr 19, 10:00 PM)30.18 "Hg (Apr 19, 10:00 PM)
Low37 °F (Apr 19, 10:00 PM)49% (Apr 11, 1:00 PM)29.98 "Hg (Apr 10, 4:00 PM)
Average75 °F80%30.07 "Hg
* Reported Apr 6 8:00 AM — Apr 21 7:00 AM, Gitega, Weather by CustomWeather, © 2014

Note: Actual official high and low records may vary slightly from our data, if they occured in-between our weather recording intervals... More about our weather records

Advertising

Historic Weather Conditions — Data for Previous 24 hours

 ConditionsComfort  
Time TempWeatherWind HumidityBarometerVisibility
7:00 AM
Apr 21
70 °FPartly sunny.5 mph88%30.07 "HgN/A
6:00 AM70 °FPartly sunny.No wind88%30.07 "HgN/A
11:00 PM
Apr 20
72 °FThundershowers. Passing clouds.No wind94%30.07 "HgN/A
10:00 PM73 °FPassing clouds.No wind83%30.04 "HgN/A
9:00 PM73 °FPassing clouds.No wind89%30.04 "HgN/A
8:00 PM75 °FPassing clouds.No wind89%30.01 "HgN/A
7:00 PM77 °FPassing clouds.No wind79%30.01 "HgN/A
5:00 PM79 °FPartly sunny.No wind74%29.98 "HgN/A
4:00 PM81 °FScattered clouds.3 mph66%29.98 "HgN/A
3:00 PM81 °FPartly sunny.6 mph70%30.01 "HgN/A
2:00 PM81 °FPartly sunny.8 mph70%30.04 "HgN/A
1:00 PM81 °FFog.14 mph62%30.04 "HgN/A
12:00 PM81 °FPassing clouds.No wind70%30.09 "HgN/A
11:00 AM79 °FScattered clouds.7 mph70%30.12 "HgN/A
10:00 AM79 °FScattered clouds.No wind65%30.12 "HgN/A
9:00 AM79 °FScattered clouds.6 mph74%30.12 "HgN/A
8:00 AM73 °FPartly sunny.No wind89%30.12 "HgN/A
Weather by CustomWeather, © 2014

See weather overview